Date_Time,Julian_Date,Latitude,Longitude,Instrument_Depth,U,V,Speed,Direction
(yyyy-mm-dd hh:mn:ss UTC),(JD),(+ deg. North),(+ deg. East),(m),(cm/s),(cm/s),(cm/s),(deg True)
1982-10-18 20:30:00 UTC,2445261.354167,28.7317,-95.2428,0201,-7.05,-9.71,12.0000,216.0000
1982-10-18 21:00:00 UTC,2445261.375000,28.7317,-95.2428,0201,-7.05,-9.71,12.0000,216.0000
1982-10-18 21:30:00 UTC,2445261.395833,28.7317,-95.2428,0201,-7.08,-10.90,13.0000,213.0000
1982-10-18 22:00:00 UTC,2445261.416667,28.7317,-95.2428,0201,-7.00,-12.12,14.0000,210.0000
1982-10-18 22:30:00 UTC,2445261.437500,28.7317,-95.2428,0201,-6.81,-13.37,15.0000,207.0000
1982-10-18 23:00:00 UTC,2445261.458333,28.7317,-95.2428,0201,-7.26,-14.26,16.0000,207.0000
1982-10-18 23:30:00 UTC,2445261.479167,28.7317,-95.2428,0201,-8.24,-14.87,17.0000,209.0000
1982-10-19 00:00:00 UTC,2445261.500000,28.7317,-95.2428,0201,-9.54,-15.26,18.0000,212.0000
1982-10-19 00:30:00 UTC,2445261.520833,28.7317,-95.2428,0201,-9.54,-15.26,18.0000,212.0000
1982-10-19 01:00:00 UTC,2445261.541667,28.7317,-95.2428,0201,-9.27,-15.43,18.0000,211.0000
1982-10-19 01:30:00 UTC,2445261.562500,28.7317,-95.2428,0201,-9.00,-15.59,18.0000,210.0000
1982-10-19 02:00:00 UTC,2445261.583333,28.7317,-95.2428,0201,-9.00,-15.59,18.0000,210.0000
1982-10-19 02:30:00 UTC,2445261.604167,28.7317,-95.2428,0201,-8.24,-14.87,17.0000,209.0000
1982-10-19 03:00:00 UTC,2445261.625000,28.7317,-95.2428,0201,-7.76,-13.99,16.0000,209.0000
1982-10-19 03:30:00 UTC,2445261.645833,28.7317,-95.2428,0201,-7.26,-14.26,16.0000,207.0000
1982-10-19 04:00:00 UTC,2445261.666667,28.7317,-95.2428,0201,-6.10,-13.70,15.0000,204.0000
1982-10-19 04:30:00 UTC,2445261.687500,28.7317,-95.2428,0201,-5.02,-13.07,14.0000,201.0000
1982-10-19 05:00:00 UTC,2445261.708333,28.7317,-95.2428,0201,-4.23,-12.29,13.0000,199.0000
1982-10-19 05:30:00 UTC,2445261.729167,28.7317,-95.2428,0201,-3.80,-12.43,13.0000,197.0000
1982-10-19 06:00:00 UTC,2445261.750000,28.7317,-95.2428,0201,-3.58,-12.50,13.0000,196.0000
1982-10-19 06:30:00 UTC,2445261.770833,28.7317,-95.2428,0201,-3.14,-12.61,13.0000,194.0000
1982-10-19 07:00:00 UTC,2445261.791667,28.7317,-95.2428,0201,-2.70,-12.72,13.0000,192.0000
1982-10-19 07:30:00 UTC,2445261.812500,28.7317,-95.2428,0201,-2.48,-12.76,13.0000,191.0000
1982-10-19 08:00:00 UTC,2445261.833333,28.7317,-95.2428,0201,-3.15,-13.64,14.0000,193.0000
1982-10-19 08:30:00 UTC,2445261.854167,28.7317,-95.2428,0201,-4.13,-14.42,15.0000,196.0000
1982-10-19 09:00:00 UTC,2445261.875000,28.7317,-95.2428,0201,-5.47,-15.04,16.0000,200.0000
1982-10-19 09:30:00 UTC,2445261.895833,28.7317,-95.2428,0201,-6.09,-15.87,17.0000,201.0000
1982-10-19 10:00:00 UTC,2445261.916667,28.7317,-95.2428,0201,-6.19,-17.96,19.0000,199.0000
1982-10-19 10:30:00 UTC,2445261.937500,28.7317,-95.2428,0201,-5.85,-19.13,20.0000,197.0000
1982-10-19 11:00:00 UTC,2445261.958333,28.7317,-95.2428,0201,-6.84,-19.86,21.0000,199.0000
1982-10-19 11:30:00 UTC,2445261.979167,28.7317,-95.2428,0201,-8.24,-21.47,23.0000,201.0000
1982-10-19 12:00:00 UTC,2445262.000000,28.7317,-95.2428,0201,-8.96,-23.34,25.0000,201.0000
1982-10-19 12:30:00 UTC,2445262.020833,28.7317,-95.2428,0201,-10.16,-23.93,26.0000,203.0000
1982-10-19 13:00:00 UTC,2445262.041667,28.7317,-95.2428,0201,-11.84,-24.27,27.0000,206.0000
1982-10-19 13:30:00 UTC,2445262.062500,28.7317,-95.2428,0201,-12.68,-23.84,27.0000,208.0000
1982-10-19 14:00:00 UTC,2445262.083333,28.7317,-95.2428,0201,-11.80,-23.17,26.0000,207.0000
1982-10-19 14:30:00 UTC,2445262.104167,28.7317,-95.2428,0201,-11.40,-23.37,26.0000,206.0000
1982-10-19 15:00:00 UTC,2445262.125000,28.7317,-95.2428,0201,-10.57,-22.66,25.0000,205.0000
1982-10-19 15:30:00 UTC,2445262.145833,28.7317,-95.2428,0201,-10.96,-22.47,25.0000,206.0000
1982-10-19 16:00:00 UTC,2445262.166667,28.7317,-95.2428,0201,-11.35,-22.28,25.0000,207.0000
1982-10-19 16:30:00 UTC,2445262.187500,28.7317,-95.2428,0201,-12.12,-21.87,25.0000,209.0000
1982-10-19 17:00:00 UTC,2445262.208333,28.7317,-95.2428,0201,-12.50,-21.65,25.0000,210.0000
1982-10-19 17:30:00 UTC,2445262.229167,28.7317,-95.2428,0201,-12.36,-20.57,24.0000,211.0000
1982-10-19 18:00:00 UTC,2445262.250000,28.7317,-95.2428,0201,-11.33,-18.86,22.0000,211.0000
1982-10-19 18:30:00 UTC,2445262.270833,28.7317,-95.2428,0201,-10.50,-18.19,21.0000,210.0000
1982-10-19 19:00:00 UTC,2445262.291667,28.7317,-95.2428,0201,-10.89,-16.77,20.0000,213.0000
1982-10-19 19:30:00 UTC,2445262.312500,28.7317,-95.2428,0201,-11.17,-15.37,19.0000,216.0000
1982-10-19 20:00:00 UTC,2445262.333333,28.7317,-95.2428,0201,-11.70,-14.97,19.0000,218.0000
1982-10-19 20:30:00 UTC,2445262.354167,28.7317,-95.2428,0201,-11.96,-14.77,19.0000,219.0000
1982-10-19 21:00:00 UTC,2445262.375000,28.7317,-95.2428,0201,-11.15,-12.83,17.0000,221.0000
1982-10-19 21:30:00 UTC,2445262.395833,28.7317,-95.2428,0201,-10.23,-10.97,15.0000,223.0000
1982-10-19 22:00:00 UTC,2445262.416667,28.7317,-95.2428,0201,-9.37,-10.40,14.0000,222.0000
1982-10-19 22:30:00 UTC,2445262.437500,28.7317,-95.2428,0201,-8.70,-9.66,13.0000,222.0000
1982-10-19 23:00:00 UTC,2445262.458333,28.7317,-95.2428,0201,-9.03,-9.35,13.0000,224.0000
1982-10-19 23:30:00 UTC,2445262.479167,28.7317,-95.2428,0201,-9.35,-9.03,13.0000,226.0000
1982-10-20 00:00:00 UTC,2445262.500000,28.7317,-95.2428,0201,-9.81,-8.53,13.0000,229.0000
1982-10-20 00:30:00 UTC,2445262.520833,28.7317,-95.2428,0201,-9.96,-8.36,13.0000,230.0000
1982-10-20 01:00:00 UTC,2445262.541667,28.7317,-95.2428,0201,-9.73,-10.07,14.0000,224.0000
1982-10-20 01:30:00 UTC,2445262.562500,28.7317,-95.2428,0201,-9.18,-10.57,14.0000,221.0000
1982-10-20 02:00:00 UTC,2445262.583333,28.7317,-95.2428,0201,-9.37,-10.40,14.0000,222.0000
1982-10-20 02:30:00 UTC,2445262.604167,28.7317,-95.2428,0201,-9.55,-10.24,14.0000,223.0000
1982-10-20 03:00:00 UTC,2445262.625000,28.7317,-95.2428,0201,-9.18,-10.57,14.0000,221.0000
1982-10-20 03:30:00 UTC,2445262.645833,28.7317,-95.2428,0201,-9.37,-10.40,14.0000,222.0000
1982-10-20 04:00:00 UTC,2445262.666667,28.7317,-95.2428,0201,-8.87,-9.51,13.0000,223.0000
1982-10-20 04:30:00 UTC,2445262.687500,28.7317,-95.2428,0201,-8.87,-9.51,13.0000,223.0000
1982-10-20 05:00:00 UTC,2445262.708333,28.7317,-95.2428,0201,-8.18,-8.78,12.0000,223.0000
1982-10-20 05:30:00 UTC,2445262.729167,28.7317,-95.2428,0201,-8.49,-8.49,12.0000,225.0000
1982-10-20 06:00:00 UTC,2445262.750000,28.7317,-95.2428,0201,-8.92,-8.03,12.0000,228.0000
1982-10-20 06:30:00 UTC,2445262.770833,28.7317,-95.2428,0201,-9.33,-7.55,12.0000,231.0000
1982-10-20 07:00:00 UTC,2445262.791667,28.7317,-95.2428,0201,-8.67,-6.77,11.0000,232.0000
1982-10-20 07:30:00 UTC,2445262.812500,28.7317,-95.2428,0201,-8.17,-7.36,11.0000,228.0000
1982-10-20 08:00:00 UTC,2445262.833333,28.7317,-95.2428,0201,-6.82,-7.31,10.0000,223.0000
1982-10-20 08:30:00 UTC,2445262.854167,28.7317,-95.2428,0201,-7.07,-7.07,10.0000,225.0000
1982-10-20 09:00:00 UTC,2445262.875000,28.7317,-95.2428,0201,-7.66,-6.43,10.0000,230.0000
1982-10-20 09:30:00 UTC,2445262.895833,28.7317,-95.2428,0201,-6.89,-5.79,9.0000,230.0000
1982-10-20 10:00:00 UTC,2445262.916667,28.7317,-95.2428,0201,-7.19,-6.95,10.0000,226.0000
1982-10-20 10:30:00 UTC,2445262.937500,28.7317,-95.2428,0201,-7.78,-7.78,11.0000,225.0000
1982-10-20 11:00:00 UTC,2445262.958333,28.7317,-95.2428,0201,-8.17,-7.36,11.0000,228.0000
1982-10-20 11:30:00 UTC,2445262.979167,28.7317,-95.2428,0201,-8.34,-8.63,12.0000,224.0000
1982-10-20 12:00:00 UTC,2445263.000000,28.7317,-95.2428,0201,-8.23,-11.33,14.0000,216.0000
1982-10-20 12:30:00 UTC,2445263.020833,28.7317,-95.2428,0201,-9.63,-12.78,16.0000,217.0000
1982-10-20 13:00:00 UTC,2445263.041667,28.7317,-95.2428,0201,-11.11,-11.51,16.0000,224.0000
1982-10-20 13:30:00 UTC,2445263.062500,28.7317,-95.2428,0201,-12.29,-8.60,15.0000,235.0000
1982-10-20 14:00:00 UTC,2445263.083333,28.7317,-95.2428,0201,-12.79,-5.69,14.0000,246.0000
1982-10-20 14:30:00 UTC,2445263.104167,28.7317,-95.2428,0201,-11.13,-4.50,12.0000,248.0000
1982-10-20 15:00:00 UTC,2445263.125000,28.7317,-95.2428,0201,-9.89,-4.82,11.0000,244.0000
1982-10-20 15:30:00 UTC,2445263.145833,28.7317,-95.2428,0201,-7.28,-5.29,9.0000,234.0000
1982-10-20 16:00:00 UTC,2445263.166667,28.7317,-95.2428,0201,-4.24,-6.78,8.0000,212.0000
1982-10-20 16:30:00 UTC,2445263.187500,28.7317,-95.2428,0201,-3.44,-4.91,6.0000,215.0000
1982-10-20 17:00:00 UTC,2445263.208333,28.7317,-95.2428,0201,-4.19,2.72,5.0000,303.0000
1982-10-20 17:30:00 UTC,2445263.229167,28.7317,-95.2428,0201,-2.39,6.58,7.0000,340.0000
1982-10-20 18:00:00 UTC,2445263.250000,28.7317,-95.2428,0201,1.79,4.67,5.0000,21.0000
1982-10-20 18:30:00 UTC,2445263.270833,28.7317,-95.2428,0201,3.71,-1.50,4.0000,112.0000
1982-10-20 19:00:00 UTC,2445263.291667,28.7317,-95.2428,0201,2.60,-7.56,8.0000,161.0000
1982-10-20 19:30:00 UTC,2445263.312500,28.7317,-95.2428,0201,1.39,-9.90,10.0000,172.0000
1982-10-20 20:00:00 UTC,2445263.333333,28.7317,-95.2428,0201,1.05,-9.95,10.0000,174.0000
1982-10-20 20:30:00 UTC,2445263.354167,28.7317,-95.2428,0201,0.52,-9.99,10.0000,177.0000
1982-10-20 21:00:00 UTC,2445263.375000,28.7317,-95.2428,0201,0.17,-10.00,10.0000,179.0000
1982-10-20 21:30:00 UTC,2445263.395833,28.7317,-95.2428,0201,-0.16,-9.00,9.0000,181.0000
1982-10-20 22:00:00 UTC,2445263.416667,28.7317,-95.2428,0201,-0.42,-7.99,8.0000,183.0000
1982-10-20 22:30:00 UTC,2445263.437500,28.7317,-95.2428,0201,-1.41,-8.89,9.0000,189.0000
1982-10-20 23:00:00 UTC,2445263.458333,28.7317,-95.2428,0201,-2.78,-8.56,9.0000,198.0000
1982-10-20 23:30:00 UTC,2445263.479167,28.7317,-95.2428,0201,-3.80,-8.16,9.0000,205.0000
1982-10-21 00:00:00 UTC,2445263.500000,28.7317,-95.2428,0201,-4.64,-7.71,9.0000,211.0000
1982-10-21 00:30:00 UTC,2445263.520833,28.7317,-95.2428,0201,-5.29,-7.28,9.0000,216.0000
1982-10-21 01:00:00 UTC,2445263.541667,28.7317,-95.2428,0201,-4.77,-7.63,9.0000,212.0000
1982-10-21 01:30:00 UTC,2445263.562500,28.7317,-95.2428,0201,-1.87,-8.80,9.0000,192.0000
1982-10-21 02:00:00 UTC,2445263.583333,28.7317,-95.2428,0201,0.84,-11.97,12.0000,176.0000
1982-10-21 02:30:00 UTC,2445263.604167,28.7317,-95.2428,0201,0.79,-14.98,15.0000,177.0000
1982-10-21 03:00:00 UTC,2445263.625000,28.7317,-95.2428,0201,-2.09,-14.85,15.0000,188.0000
1982-10-21 03:30:00 UTC,2445263.645833,28.7317,-95.2428,0201,-6.25,-14.73,16.0000,203.0000
1982-10-21 04:00:00 UTC,2445263.666667,28.7317,-95.2428,0201,-7.51,-14.13,16.0000,208.0000
1982-10-21 04:30:00 UTC,2445263.687500,28.7317,-95.2428,0201,-8.00,-13.86,16.0000,210.0000
1982-10-21 05:00:00 UTC,2445263.708333,28.7317,-95.2428,0201,-9.26,-14.26,17.0000,213.0000
1982-10-21 05:30:00 UTC,2445263.729167,28.7317,-95.2428,0201,-9.99,-13.75,17.0000,216.0000
1982-10-21 06:00:00 UTC,2445263.750000,28.7317,-95.2428,0201,-10.93,-13.02,17.0000,220.0000
1982-10-21 06:30:00 UTC,2445263.770833,28.7317,-95.2428,0201,-11.59,-12.43,17.0000,223.0000
1982-10-21 07:00:00 UTC,2445263.791667,28.7317,-95.2428,0201,-11.38,-12.63,17.0000,222.0000
1982-10-21 07:30:00 UTC,2445263.812500,28.7317,-95.2428,0201,-10.83,-14.38,18.0000,217.0000
1982-10-21 08:00:00 UTC,2445263.833333,28.7317,-95.2428,0201,-10.90,-15.56,19.0000,215.0000
1982-10-21 08:30:00 UTC,2445263.854167,28.7317,-95.2428,0201,-12.34,-16.99,21.0000,216.0000
1982-10-21 09:00:00 UTC,2445263.875000,28.7317,-95.2428,0201,-13.22,-16.32,21.0000,219.0000
1982-10-21 09:30:00 UTC,2445263.895833,28.7317,-95.2428,0201,-13.85,-17.10,22.0000,219.0000
1982-10-21 10:00:00 UTC,2445263.916667,28.7317,-95.2428,0201,-13.24,-17.57,22.0000,217.0000
1982-10-21 10:30:00 UTC,2445263.937500,28.7317,-95.2428,0201,-12.62,-18.02,22.0000,215.0000
1982-10-21 11:00:00 UTC,2445263.958333,28.7317,-95.2428,0201,-13.52,-18.61,23.0000,216.0000
1982-10-21 11:30:00 UTC,2445263.979167,28.7317,-95.2428,0201,-13.42,-19.90,24.0000,214.0000
1982-10-21 12:00:00 UTC,2445264.000000,28.7317,-95.2428,0201,-12.88,-21.43,25.0000,211.0000
1982-10-21 12:30:00 UTC,2445264.020833,28.7317,-95.2428,0201,-12.50,-21.65,25.0000,210.0000
1982-10-21 13:00:00 UTC,2445264.041667,28.7317,-95.2428,0201,-12.88,-21.43,25.0000,211.0000
1982-10-21 13:30:00 UTC,2445264.062500,28.7317,-95.2428,0201,-13.62,-20.97,25.0000,213.0000
1982-10-21 14:00:00 UTC,2445264.083333,28.7317,-95.2428,0201,-12.19,-19.51,23.0000,212.0000
1982-10-21 14:30:00 UTC,2445264.104167,28.7317,-95.2428,0201,-8.45,-18.13,20.0000,205.0000
1982-10-21 15:00:00 UTC,2445264.125000,28.7317,-95.2428,0201,-8.13,-18.27,20.0000,204.0000
1982-10-21 15:30:00 UTC,2445264.145833,28.7317,-95.2428,0201,-10.50,-18.19,21.0000,210.0000
1982-10-21 16:00:00 UTC,2445264.166667,28.7317,-95.2428,0201,-10.30,-17.14,20.0000,211.0000
1982-10-21 16:30:00 UTC,2445264.187500,28.7317,-95.2428,0201,-9.50,-16.45,19.0000,210.0000
1982-10-21 17:00:00 UTC,2445264.208333,28.7317,-95.2428,0201,-10.07,-14.92,18.0000,214.0000
1982-10-21 17:30:00 UTC,2445264.229167,28.7317,-95.2428,0201,-8.62,-11.03,14.0000,218.0000
1982-10-21 18:00:00 UTC,2445264.250000,28.7317,-95.2428,0201,-5.99,-9.23,11.0000,213.0000
1982-10-21 18:30:00 UTC,2445264.270833,28.7317,-95.2428,0201,-4.23,-9.06,10.0000,205.0000
1982-10-21 19:00:00 UTC,2445264.291667,28.7317,-95.2428,0201,-4.54,-8.91,10.0000,207.0000
1982-10-21 19:30:00 UTC,2445264.312500,28.7317,-95.2428,0201,-5.74,-8.19,10.0000,215.0000
1982-10-21 20:00:00 UTC,2445264.333333,28.7317,-95.2428,0201,-7.78,-7.78,11.0000,225.0000
1982-10-21 20:30:00 UTC,2445264.354167,28.7317,-95.2428,0201,-8.43,-7.07,11.0000,230.0000
1982-10-21 21:00:00 UTC,2445264.375000,28.7317,-95.2428,0201,-8.43,-7.07,11.0000,230.0000
1982-10-21 21:30:00 UTC,2445264.395833,28.7317,-95.2428,0201,-7.99,-6.02,10.0000,233.0000
1982-10-21 22:00:00 UTC,2445264.416667,28.7317,-95.2428,0201,-8.19,-5.74,10.0000,235.0000
1982-10-21 22:30:00 UTC,2445264.437500,28.7317,-95.2428,0201,-8.09,-5.88,10.0000,234.0000
1982-10-21 23:00:00 UTC,2445264.458333,28.7317,-95.2428,0201,-9.01,-6.31,11.0000,235.0000
1982-10-21 23:30:00 UTC,2445264.479167,28.7317,-95.2428,0201,-9.12,-6.15,11.0000,236.0000
1982-10-22 00:00:00 UTC,2445264.500000,28.7317,-95.2428,0201,-8.78,-6.62,11.0000,233.0000
1982-10-22 00:30:00 UTC,2445264.520833,28.7317,-95.2428,0201,-7.50,-8.04,11.0000,223.0000
1982-10-22 01:00:00 UTC,2445264.541667,28.7317,-95.2428,0201,-6.89,-11.02,13.0000,212.0000
1982-10-22 01:30:00 UTC,2445264.562500,28.7317,-95.2428,0201,-7.95,-12.72,15.0000,212.0000
1982-10-22 02:00:00 UTC,2445264.583333,28.7317,-95.2428,0201,-9.84,-11.32,15.0000,221.0000
1982-10-22 02:30:00 UTC,2445264.604167,28.7317,-95.2428,0201,-10.61,-10.61,15.0000,225.0000
1982-10-22 03:00:00 UTC,2445264.625000,28.7317,-95.2428,0201,-9.18,-10.57,14.0000,221.0000
1982-10-22 03:30:00 UTC,2445264.645833,28.7317,-95.2428,0201,-9.37,-10.40,14.0000,222.0000
1982-10-22 04:00:00 UTC,2445264.666667,28.7317,-95.2428,0201,-9.03,-9.35,13.0000,224.0000
1982-10-22 04:30:00 UTC,2445264.687500,28.7317,-95.2428,0201,-7.87,-9.06,12.0000,221.0000
1982-10-22 05:00:00 UTC,2445264.708333,28.7317,-95.2428,0201,-8.00,-10.24,13.0000,218.0000
1982-10-22 05:30:00 UTC,2445264.729167,28.7317,-95.2428,0201,-8.36,-9.96,13.0000,220.0000
1982-10-22 06:00:00 UTC,2445264.750000,28.7317,-95.2428,0201,-9.55,-10.24,14.0000,223.0000
1982-10-22 06:30:00 UTC,2445264.770833,28.7317,-95.2428,0201,-9.90,-9.90,14.0000,225.0000
1982-10-22 07:00:00 UTC,2445264.791667,28.7317,-95.2428,0201,-10.61,-10.61,15.0000,225.0000
1982-10-22 07:30:00 UTC,2445264.812500,28.7317,-95.2428,0201,-9.85,-12.61,16.0000,218.0000
1982-10-22 08:00:00 UTC,2445264.833333,28.7317,-95.2428,0201,-8.76,-14.57,17.0000,211.0000
1982-10-22 08:30:00 UTC,2445264.854167,28.7317,-95.2428,0201,-9.00,-15.59,18.0000,210.0000
1982-10-22 09:00:00 UTC,2445264.875000,28.7317,-95.2428,0201,-10.62,-15.75,19.0000,214.0000
1982-10-22 09:30:00 UTC,2445264.895833,28.7317,-95.2428,0201,-10.90,-15.56,19.0000,215.0000
1982-10-22 10:00:00 UTC,2445264.916667,28.7317,-95.2428,0201,-10.62,-15.75,19.0000,214.0000
1982-10-22 10:30:00 UTC,2445264.937500,28.7317,-95.2428,0201,-10.07,-16.11,19.0000,212.0000
1982-10-22 11:00:00 UTC,2445264.958333,28.7317,-95.2428,0201,-9.00,-15.59,18.0000,210.0000
1982-10-22 11:30:00 UTC,2445264.979167,28.7317,-95.2428,0201,-9.27,-15.43,18.0000,211.0000
1982-10-22 12:00:00 UTC,2445265.000000,28.7317,-95.2428,0201,-9.54,-15.26,18.0000,212.0000
1982-10-22 12:30:00 UTC,2445265.020833,28.7317,-95.2428,0201,-8.45,-15.89,18.0000,208.0000
1982-10-22 13:00:00 UTC,2445265.041667,28.7317,-95.2428,0201,-7.73,-17.36,19.0000,204.0000
1982-10-22 13:30:00 UTC,2445265.062500,28.7317,-95.2428,0201,-7.73,-17.36,19.0000,204.0000
1982-10-22 14:00:00 UTC,2445265.083333,28.7317,-95.2428,0201,-7.45,-15.28,17.0000,206.0000
1982-10-22 14:30:00 UTC,2445265.104167,28.7317,-95.2428,0201,-7.51,-14.13,16.0000,208.0000
1982-10-22 15:00:00 UTC,2445265.125000,28.7317,-95.2428,0201,-8.00,-13.86,16.0000,210.0000
1982-10-22 15:30:00 UTC,2445265.145833,28.7317,-95.2428,0201,-8.00,-13.86,16.0000,210.0000
1982-10-22 16:00:00 UTC,2445265.166667,28.7317,-95.2428,0201,-7.51,-14.13,16.0000,208.0000
1982-10-22 16:30:00 UTC,2445265.187500,28.7317,-95.2428,0201,-8.24,-14.87,17.0000,209.0000
1982-10-22 17:00:00 UTC,2445265.208333,28.7317,-95.2428,0201,-7.98,-15.01,17.0000,208.0000
1982-10-22 17:30:00 UTC,2445265.229167,28.7317,-95.2428,0201,-5.62,-13.91,15.0000,202.0000
1982-10-22 18:00:00 UTC,2445265.250000,28.7317,-95.2428,0201,-4.56,-13.24,14.0000,199.0000
1982-10-22 18:30:00 UTC,2445265.270833,28.7317,-95.2428,0201,-5.63,-10.60,12.0000,208.0000
1982-10-22 19:00:00 UTC,2445265.291667,28.7317,-95.2428,0201,-6.92,-8.55,11.0000,219.0000
1982-10-22 19:30:00 UTC,2445265.312500,28.7317,-95.2428,0201,-6.82,-7.31,10.0000,223.0000
1982-10-22 20:00:00 UTC,2445265.333333,28.7317,-95.2428,0201,-5.42,-7.19,9.0000,217.0000
1982-10-22 20:30:00 UTC,2445265.354167,28.7317,-95.2428,0201,-4.77,-7.63,9.0000,212.0000
1982-10-22 21:00:00 UTC,2445265.375000,28.7317,-95.2428,0201,-5.59,-8.29,10.0000,214.0000
1982-10-22 21:30:00 UTC,2445265.395833,28.7317,-95.2428,0201,-6.77,-8.67,11.0000,218.0000
1982-10-22 22:00:00 UTC,2445265.416667,28.7317,-95.2428,0201,-7.07,-8.43,11.0000,220.0000
1982-10-22 22:30:00 UTC,2445265.437500,28.7317,-95.2428,0201,-7.22,-8.30,11.0000,221.0000
1982-10-22 23:00:00 UTC,2445265.458333,28.7317,-95.2428,0201,-7.71,-9.19,12.0000,220.0000
1982-10-22 23:30:00 UTC,2445265.479167,28.7317,-95.2428,0201,-7.55,-9.33,12.0000,219.0000
1982-10-23 00:00:00 UTC,2445265.500000,28.7317,-95.2428,0201,-7.39,-9.46,12.0000,218.0000
1982-10-23 00:30:00 UTC,2445265.520833,28.7317,-95.2428,0201,-6.77,-8.67,11.0000,218.0000
1982-10-23 01:00:00 UTC,2445265.541667,28.7317,-95.2428,0201,-6.62,-8.79,11.0000,217.0000
1982-10-23 01:30:00 UTC,2445265.562500,28.7317,-95.2428,0201,-6.43,-7.66,10.0000,220.0000
1982-10-23 02:00:00 UTC,2445265.583333,28.7317,-95.2428,0201,-6.47,-6.25,9.0000,226.0000
1982-10-23 02:30:00 UTC,2445265.604167,28.7317,-95.2428,0201,-6.04,-5.25,8.0000,229.0000
1982-10-23 03:00:00 UTC,2445265.625000,28.7317,-95.2428,0201,-6.13,-5.14,8.0000,230.0000
1982-10-23 03:30:00 UTC,2445265.645833,28.7317,-95.2428,0201,-6.22,-5.03,8.0000,231.0000
1982-10-23 04:00:00 UTC,2445265.666667,28.7317,-95.2428,0201,-5.95,-5.35,8.0000,228.0000
1982-10-23 04:30:00 UTC,2445265.687500,28.7317,-95.2428,0201,-4.41,-5.44,7.0000,219.0000
1982-10-23 05:00:00 UTC,2445265.708333,28.7317,-95.2428,0201,-4.36,-6.71,8.0000,213.0000
1982-10-23 05:30:00 UTC,2445265.729167,28.7317,-95.2428,0201,-6.47,-8.90,11.0000,216.0000
1982-10-23 06:00:00 UTC,2445265.750000,28.7317,-95.2428,0201,-8.53,-9.81,13.0000,221.0000
1982-10-23 06:30:00 UTC,2445265.770833,28.7317,-95.2428,0201,-9.37,-10.40,14.0000,222.0000
1982-10-23 07:00:00 UTC,2445265.791667,28.7317,-95.2428,0201,-9.18,-10.57,14.0000,221.0000
1982-10-23 07:30:00 UTC,2445265.812500,28.7317,-95.2428,0201,-9.23,-11.82,15.0000,218.0000
1982-10-23 08:00:00 UTC,2445265.833333,28.7317,-95.2428,0201,-8.95,-13.26,16.0000,214.0000
1982-10-23 08:30:00 UTC,2445265.854167,28.7317,-95.2428,0201,-9.27,-15.43,18.0000,211.0000
1982-10-23 09:00:00 UTC,2445265.875000,28.7317,-95.2428,0201,-9.86,-18.54,21.0000,208.0000
1982-10-23 09:30:00 UTC,2445265.895833,28.7317,-95.2428,0201,-9.64,-19.77,22.0000,206.0000
1982-10-23 10:00:00 UTC,2445265.916667,28.7317,-95.2428,0201,-10.08,-20.67,23.0000,206.0000
1982-10-23 10:30:00 UTC,2445265.937500,28.7317,-95.2428,0201,-10.80,-20.31,23.0000,208.0000
1982-10-23 11:00:00 UTC,2445265.958333,28.7317,-95.2428,0201,-12.19,-19.51,23.0000,212.0000
1982-10-23 11:30:00 UTC,2445265.979167,28.7317,-95.2428,0201,-12.19,-19.51,23.0000,212.0000
1982-10-23 12:00:00 UTC,2445266.000000,28.7317,-95.2428,0201,-10.90,-21.38,24.0000,207.0000
1982-10-23 12:30:00 UTC,2445266.020833,28.7317,-95.2428,0201,-8.99,-21.17,23.0000,203.0000
1982-10-23 13:00:00 UTC,2445266.041667,28.7317,-95.2428,0201,-6.49,-19.97,21.0000,198.0000
1982-10-23 13:30:00 UTC,2445266.062500,28.7317,-95.2428,0201,-6.14,-20.08,21.0000,197.0000
1982-10-23 14:00:00 UTC,2445266.083333,28.7317,-95.2428,0201,-9.35,-21.01,23.0000,204.0000
1982-10-23 14:30:00 UTC,2445266.104167,28.7317,-95.2428,0201,-12.88,-21.43,25.0000,211.0000
1982-10-23 15:00:00 UTC,2445266.125000,28.7317,-95.2428,0201,-13.07,-20.13,24.0000,213.0000
1982-10-23 15:30:00 UTC,2445266.145833,28.7317,-95.2428,0201,-11.50,-19.92,23.0000,210.0000
1982-10-23 16:00:00 UTC,2445266.166667,28.7317,-95.2428,0201,-10.50,-18.19,21.0000,210.0000
1982-10-23 16:30:00 UTC,2445266.187500,28.7317,-95.2428,0201,-9.00,-15.59,18.0000,210.0000
1982-10-23 17:00:00 UTC,2445266.208333,28.7317,-95.2428,0201,-8.24,-14.87,17.0000,209.0000
1982-10-23 17:30:00 UTC,2445266.229167,28.7317,-95.2428,0201,-8.95,-13.26,16.0000,214.0000
1982-10-23 18:00:00 UTC,2445266.250000,28.7317,-95.2428,0201,-9.64,-11.49,15.0000,220.0000
1982-10-23 18:30:00 UTC,2445266.270833,28.7317,-95.2428,0201,-7.27,-10.78,13.0000,214.0000
1982-10-23 19:00:00 UTC,2445266.291667,28.7317,-95.2428,0201,-4.65,-9.97,11.0000,205.0000
1982-10-23 19:30:00 UTC,2445266.312500,28.7317,-95.2428,0201,-4.64,-7.71,9.0000,211.0000
1982-10-23 20:00:00 UTC,2445266.333333,28.7317,-95.2428,0201,-3.50,-6.06,7.0000,210.0000
1982-10-23 20:30:00 UTC,2445266.354167,28.7317,-95.2428,0201,-1.10,-6.91,7.0000,189.0000
1982-10-23 21:00:00 UTC,2445266.375000,28.7317,-95.2428,0201,-0.12,-7.00,7.0000,181.0000
1982-10-23 21:30:00 UTC,2445266.395833,28.7317,-95.2428,0201,-0.44,-4.98,5.0000,185.0000
1982-10-23 22:00:00 UTC,2445266.416667,28.7317,-95.2428,0201,-0.24,-1.99,2.0000,187.0000
1982-10-23 22:30:00 UTC,2445266.437500,28.7317,-95.2428,0201,1.27,2.72,3.0000,25.0000
1982-10-23 23:00:00 UTC,2445266.458333,28.7317,-95.2428,0201,2.51,6.54,7.0000,21.0000
1982-10-23 23:30:00 UTC,2445266.479167,28.7317,-95.2428,0201,3.58,9.34,10.0000,21.0000
1982-10-24 00:00:00 UTC,2445266.500000,28.7317,-95.2428,0201,4.30,10.13,11.0000,23.0000
1982-10-24 00:30:00 UTC,2445266.520833,28.7317,-95.2428,0201,5.26,10.79,12.0000,26.0000
1982-10-24 01:00:00 UTC,2445266.541667,28.7317,-95.2428,0201,5.67,9.43,11.0000,31.0000
1982-10-24 01:30:00 UTC,2445266.562500,28.7317,-95.2428,0201,6.14,6.58,9.0000,43.0000
1982-10-24 02:00:00 UTC,2445266.583333,28.7317,-95.2428,0201,5.35,2.72,6.0000,63.0000
1982-10-24 02:30:00 UTC,2445266.604167,28.7317,-95.2428,0201,3.98,0.35,4.0000,85.0000
1982-10-24 03:00:00 UTC,2445266.625000,28.7317,-95.2428,0201,2.85,-0.93,3.0000,108.0000
1982-10-24 03:30:00 UTC,2445266.645833,28.7317,-95.2428,0201,2.49,-1.68,3.0000,124.0000
1982-10-24 04:00:00 UTC,2445266.666667,28.7317,-95.2428,0201,2.54,-1.59,3.0000,122.0000
1982-10-24 04:30:00 UTC,2445266.687500,28.7317,-95.2428,0201,3.43,-2.06,4.0000,121.0000
1982-10-24 05:00:00 UTC,2445266.708333,28.7317,-95.2428,0201,3.39,-2.12,4.0000,122.0000
1982-10-24 05:30:00 UTC,2445266.729167,28.7317,-95.2428,0201,4.33,-2.50,5.0000,120.0000
1982-10-24 06:00:00 UTC,2445266.750000,28.7317,-95.2428,0201,4.24,-2.65,5.0000,122.0000
1982-10-24 06:30:00 UTC,2445266.770833,28.7317,-95.2428,0201,4.24,-2.65,5.0000,122.0000
1982-10-24 07:00:00 UTC,2445266.791667,28.7317,-95.2428,0201,4.49,-2.19,5.0000,116.0000
1982-10-24 07:30:00 UTC,2445266.812500,28.7317,-95.2428,0201,4.70,-1.71,5.0000,110.0000